EN

Hourly Weather Laguna

Today, 30 July, Friday

Time Temperature Precipitation Wind Pressure Humidity
00:00 +3°C° 0 mm 5 mps 770 mmHg 76%
01:00 +3°C° 0 mm 4 mps 770 mmHg 77%
02:00 +3°C° 0 mm 4 mps 770 mmHg 78%
03:00 +3°C° 0 mm 4 mps 770 mmHg 79%
04:00 +3°C° 0 mm 4 mps 770 mmHg 79%
05:00 +3°C° 0 mm 4 mps 770 mmHg 79%
06:00 +2°C° 0 mm 3 mps 770 mmHg 80%
07:00 +4°C° 0 mm 3 mps 771 mmHg 72%
08:00 +7°C° 0 mm 3 mps 771 mmHg 65%
09:00 +9°C° 0 mm 3 mps 772 mmHg 57%
10:00 +10°C° 0 mm 3 mps 772 mmHg 52%
11:00 +12°C° 0 mm 3 mps 772 mmHg 46%
12:00 +14°C° 0 mm 3 mps 772 mmHg 41%
13:00 +14°C° 0 mm 3 mps 772 mmHg 42%
14:00 +14°C° 0 mm 3 mps 771 mmHg 42%
15:00 +16°C° 0 mm 2 mps 771 mmHg 43%
16:00 +13°C° 0 mm 2 mps 771 mmHg 55%
17:00 +10°C° 0 mm 2 mps 771 mmHg 67%
18:00 +9°C° 0 mm 1 mps 771 mmHg 79%
19:00 +8°C° 0 mm 1 mps 772 mmHg 82%
20:00 +8°C° 0 mm 1 mps 772 mmHg 85%
21:00 +7°C° 0 mm 1 mps 773 mmHg 88%
22:00 +7°C° 0 mm 1 mps 773 mmHg 89%
23:00 +6°C° 0 mm 1 mps 773 mmHg 90%

Tomorrow, 31 July, Saturday

Time Temperature Precipitation Wind Pressure Humidity
00:00 +6°C° 0 mm 1 mps 773 mmHg 90%
01:00 +5°C° 0 mm 2 mps 773 mmHg 90%
02:00 +5°C° 0 mm 2 mps 773 mmHg 90%
03:00 +5°C° 0 mm 2 mps 772 mmHg 89%
04:00 +4°C° 0 mm 3 mps 772 mmHg 89%
05:00 +4°C° 0 mm 3 mps 772 mmHg 88%
06:00 +4°C° 0 mm 3 mps 772 mmHg 88%
07:00 +7°C° 0 mm 3 mps 772 mmHg 79%
08:00 +9°C° 0 mm 2 mps 773 mmHg 71%
09:00 +12°C° 0 mm 2 mps 773 mmHg 63%
10:00 +13°C° 0 mm 3 mps 773 mmHg 59%
11:00 +15°C° 0 mm 4 mps 773 mmHg 55%
12:00 +19°C° 0 mm 5 mps 773 mmHg 51%
13:00 +19°C° 0 mm 5 mps 772 mmHg 52%
14:00 +19°C° 0 mm 5 mps 772 mmHg 54%
15:00 +19°C° 0 mm 6 mps 771 mmHg 56%
16:00 +16°C° 0 mm 5 mps 771 mmHg 64%
17:00 +14°C° 0 mm 5 mps 771 mmHg 73%
18:00 +13°C° 0 mm 5 mps 772 mmHg 81%
19:00 +12°C° 0 mm 5 mps 772 mmHg 86%
20:00 +10°C° 0 mm 5 mps 772 mmHg 90%
21:00 +9°C° 0 mm 5 mps 773 mmHg 94%
22:00 +10°C° 0 mm 4 mps 773 mmHg 93%
23:00 +10°C° 0 mm 4 mps 773 mmHg 92%

Day after tomorrow, 1 August, Sunday

Time Temperature Precipitation Wind Pressure Humidity
00:00 +10°C° 0 mm 4 mps 773 mmHg 91%
01:00 +11°C° 0 mm 4 mps 773 mmHg 90%
02:00 +11°C° 0 mm 3 mps 772 mmHg 88%
03:00 +12°C° 0 mm 3 mps 772 mmHg 86%
04:00 +12°C° 0 mm 3 mps 772 mmHg 88%
05:00 +12°C° 0 mm 3 mps 772 mmHg 90%
06:00 +12°C° 0 mm 4 mps 772 mmHg 91%
07:00 +13°C° 0 mm 3 mps 772 mmHg 86%
08:00 +14°C° 0 mm 3 mps 772 mmHg 81%
09:00 +16°C° 0 mm 3 mps 772 mmHg 76%
10:00 +15°C° 0 mm 4 mps 772 mmHg 77%
11:00 +15°C° 0 mm 4 mps 772 mmHg 79%
12:00 +15°C° 0 mm 4 mps 773 mmHg 80%
13:00 +15°C° 0.1 mm 4 mps 772 mmHg 83%
14:00 +14°C° 0.1 mm 4 mps 772 mmHg 87%
15:00 +14°C° 0.1 mm 4 mps 771 mmHg 91%
16:00 +14°C° 0 mm 4 mps 771 mmHg 91%
17:00 +14°C° 0 mm 3 mps 771 mmHg 91%
18:00 +14°C° 0 mm 3 mps 771 mmHg 92%
19:00 +14°C° 0.1 mm 3 mps 771 mmHg 92%
20:00 +13°C° 0.1 mm 4 mps 771 mmHg 93%
21:00 +13°C° 0.1 mm 4 mps 771 mmHg 94%
22:00 +13°C° 0.1 mm 4 mps 771 mmHg 94%
23:00 +13°C° 0.1 mm 4 mps 771 mmHg 94%

2 August, Monday

Time Temperature Precipitation Wind Pressure Humidity
00:00 +13°C° 0.1 mm 4 mps 770 mmHg 94%
01:00 +13°C° 0.1 mm 3 mps 770 mmHg 94%
02:00 +13°C° 0.1 mm 3 mps 770 mmHg 94%
03:00 +13°C° 0.1 mm 3 mps 769 mmHg 93%
04:00 +14°C° 0 mm 2 mps 769 mmHg 93%
05:00 +14°C° 0 mm 2 mps 769 mmHg 92%
06:00 +14°C° 0 mm 1 mps 769 mmHg 92%
07:00 +15°C° 0 mm 1 mps 769 mmHg 90%
08:00 +15°C° 0 mm 2 mps 770 mmHg 88%
09:00 +16°C° 0 mm 2 mps 770 mmHg 85%
10:00 +17°C° 0 mm 3 mps 770 mmHg 77%
11:00 +18°C° 0 mm 4 mps 770 mmHg 69%
12:00 +20°C° 0 mm 4 mps 770 mmHg 61%
13:00 +19°C° 0 mm 4 mps 769 mmHg 61%
14:00 +19°C° 0 mm 4 mps 769 mmHg 60%
15:00 +19°C° 0 mm 5 mps 768 mmHg 60%
16:00 +17°C° 0 mm 4 mps 768 mmHg 68%
17:00 +14°C° 0 mm 4 mps 768 mmHg 75%
18:00 +13°C° 0 mm 3 mps 768 mmHg 83%
19:00 +12°C° 0 mm 3 mps 769 mmHg 84%
20:00 +12°C° 0 mm 3 mps 769 mmHg 86%
21:00 +11°C° 0 mm 3 mps 769 mmHg 87%
22:00 +11°C° 0 mm 3 mps 769 mmHg 88%
23:00 +11°C° 0 mm 3 mps 769 mmHg 90%

3 August, Tuesday

Time Temperature Precipitation Wind Pressure Humidity
00:00 +10°C° 0 mm 4 mps 768 mmHg 91%
01:00 +10°C° 0 mm 4 mps 768 mmHg 90%
02:00 +11°C° 0 mm 4 mps 768 mmHg 90%
03:00 +11°C° 0 mm 4 mps 767 mmHg 89%
04:00 +11°C° 0 mm 4 mps 767 mmHg 86%
05:00 +12°C° 0 mm 4 mps 767 mmHg 82%
06:00 +13°C° 0 mm 5 mps 767 mmHg 78%
07:00 +13°C° 0 mm 5 mps 768 mmHg 75%
08:00 +14°C° 0 mm 5 mps 768 mmHg 72%
09:00 +14°C° 0 mm 6 mps 768 mmHg 69%
10:00 +15°C° 0 mm 6 mps 768 mmHg 70%
11:00 +16°C° 0 mm 6 mps 768 mmHg 71%
12:00 +16°C° 0 mm 6 mps 768 mmHg 72%
13:00 +17°C° 0 mm 6 mps 768 mmHg 73%
14:00 +17°C° 0 mm 7 mps 768 mmHg 75%
15:00 +17°C° 0 mm 7 mps 768 mmHg 76%
16:00 +17°C° 0 mm 7 mps 768 mmHg 78%
17:00 +16°C° 0 mm 7 mps 768 mmHg 80%
18:00 +16°C° 0 mm 7 mps 769 mmHg 82%
19:00 +15°C° 0 mm 6 mps 769 mmHg 85%
20:00 +15°C° 0 mm 6 mps 769 mmHg 88%
21:00 +14°C° 0 mm 6 mps 770 mmHg 91%
22:00 +14°C° 0 mm 5 mps 770 mmHg 91%
23:00 +14°C° 0 mm 5 mps 770 mmHg 92%

4 August, Wednesday

Time Temperature Precipitation Wind Pressure Humidity
00:00 +14°C° 0 mm 5 mps 770 mmHg 93%
01:00 +14°C° 0 mm 5 mps 770 mmHg 92%
02:00 +14°C° 0 mm 5 mps 770 mmHg 91%
03:00 +14°C° 0 mm 5 mps 770 mmHg 90%
04:00 +14°C° 0 mm 4 mps 770 mmHg 91%
05:00 +14°C° 0 mm 4 mps 770 mmHg 91%
06:00 +14°C° 0 mm 4 mps 770 mmHg 91%
07:00 +15°C° 0 mm 4 mps 771 mmHg 89%
08:00 +15°C° 0 mm 4 mps 772 mmHg 86%
09:00 +17°C° 0 mm 4 mps 772 mmHg 84%
10:00 +18°C° 0 mm 3 mps 772 mmHg 81%
11:00 +19°C° 0 mm 3 mps 772 mmHg 79%
12:00 +19°C° 0 mm 3 mps 772 mmHg 76%
13:00 +20°C° 0.1 mm 3 mps 772 mmHg 75%
14:00 +20°C° 0.1 mm 3 mps 772 mmHg 73%
15:00 +20°C° 0.1 mm 2 mps 772 mmHg 72%
16:00 +18°C° 0 mm 2 mps 772 mmHg 80%
17:00 +18°C° 0 mm 1 mps 772 mmHg 88%
18:00 +16°C° 0 mm 1 mps 772 mmHg 96%
19:00 +15°C° 0 mm 1 mps 773 mmHg 96%
20:00 +15°C° 0 mm 1 mps 773 mmHg 97%
21:00 +14°C° 0 mm 1 mps 774 mmHg 97%
22:00 +14°C° 0 mm 1 mps 774 mmHg 97%
23:00 +14°C° 0 mm 1 mps 774 mmHg 97%
Show more